[[{"header":{"parameterUnit":"m.s-1","parameterCategory":1,"la1":30.2991,"la2":30.254,"lo1":-89.0895,"lo2":-89.0444,"dy":0.0017,"dx":0.0017,"nx":28,"ny":28,"refTime":"2023-10-25T09:00:00:Z","depth":0,"parameterNumber":2,"parameterNumberName":"U-component_of_WINDS"},"data":[0,0,0,0,0,0,0,0,0,0,0,0,0,0,0,0,0,0,0,0,0,0,0,0,0,0,0,0,0,0,0,0,0,0,0,0,0,0,0,0,0,0,0,0,0,0,0,0,0,0,0,0,0,0,0,0,0,0,-4.3073,-4.3075,0,-4.3187,-4.3188,-4.3189,-4.3126,-4.3123,-4.312,-4.3117,-4.3234,-4.3239,-4.3245,0,0,0,0,0,0,0,0,0,0,0,0,0,-4.2804,-4.2809,-4.3073,-4.3075,-4.3076,-4.3187,-4.3188,-4.319,-4.3127,-4.3123,-4.3119,-4.3116,-4.3232,-4.3239,-4.3246,0,0,0,0,0,0,0,0,0,0,0,0,0,-4.2919,-4.2811,-4.3073,-4.3058,-4.3058,-4.3186,-4.3188,-4.319,-4.3128,-4.3123,-4.3118,-4.3114,-4.3229,-4.3238,-4.3247,-4.3397,0,0,-4.3274,-4.3278,0,0,0,0,0,0,0,0,-4.2913,-4.2929,-4.3059,-4.3059,-4.3059,-4.3138,-4.3136,-4.3259,-4.3129,-4.3101,-4.3117,-4.3112,-4.3205,-4.3216,-4.3248,-4.3402,-4.3407,-4.3275,-4.3281,-4.3285,-4.3287,0,0,0,0,0,0,0,-4.2905,-4.2924,-4.3118,-4.3061,-4.3061,-4.3046,-4.3058,-4.3159,-4.3178,-4.3103,-4.3099,-4.3113,-4.3205,-4.3239,-4.325,-4.3409,-4.3275,-4.3283,-4.3289,-4.3292,-4.3693,-4.3698,0,0,0,0,0,0,-4.2898,-4.2918,-4.3115,-4.3122,-4.2973,-4.3055,-4.3067,-4.3117,-4.3177,-4.3182,-4.3117,-4.311,-4.3226,-4.324,-4.3254,-4.3433,-4.3285,-4.3293,-4.3298,-4.3688,-4.3694,-4.37,0,0,0,0,0,0,-4.2892,-4.2916,-4.311,-4.3019,-4.3042,-4.3065,-4.3121,-4.3122,-4.3156,-4.3188,-4.3191,-4.3149,-4.3223,-4.3241,-4.3362,-4.3436,-4.3297,-4.3305,-4.3682,-4.369,-4.3697,-4.3792,0,0,0,0,0,0,-4.2885,-4.2914,-4.2971,-4.302,-4.3047,-4.3216,-4.3126,-4.3128,-4.3172,-4.3164,-4.3218,-4.3222,-4.3221,-4.3349,-4.3371,-4.3446,-4.3312,-4.3675,-4.3685,-4.3695,-4.3782,-4.3802,-4.3819,0,0,0,0,0,-4.2875,-4.2993,-4.2974,-4.2998,-4.3118,-4.322,-4.3235,-4.3231,-4.3178,-4.3235,-4.3256,-4.3221,-4.3425,-4.3362,-4.3386,-4.3465,-4.367,-4.3682,-4.3694,-4.3774,-4.3798,-4.3819,0,0,0,0,0,0,-4.295,-4.2999,-4.2978,-4.3115,-4.3164,-4.3209,-4.328,-4.3257,-4.3321,-4.331,-4.3303,-4.3315,-4.3441,-4.3465,-4.3394,-4.3614,-4.354,-4.3557,-4.3592,-4.3616,-4.3634,-4.3624,-4.332,0,0,0,0,0,-4.2983,-4.3061,-4.3099,-4.3217,-4.3242,-4.3258,-4.3302,-4.3295,-4.3345,-4.3365,-4.3394,-4.3444,-4.352,-4.357,-4.3641,-4.3787,-4.3798,-4.3854,-4.3872,-4.3887,-4.3901,-4.3981,-4.4006,-4.3739,-4.3738,-4.3738,0,0,-4.305,-4.3087,-4.3136,-4.3233,-4.3269,-4.3351,-4.3275,-4.3364,-4.3425,-4.3378,-4.3493,-4.3518,-4.3573,-4.3708,-4.3768,-4.3732,-4.3978,-4.3902,-4.3914,-4.392,-4.3995,-4.402,-4.4043,-4.3747,-4.3745,-4.3744,0,0,-4.3214,-4.325,-4.3352,-4.3391,-4.3448,-4.3458,-4.3483,-4.3533,-4.3547,-4.3663,-4.363,-4.3703,-4.3833,-4.3874,-4.3913,-4.4097,-4.4067,-4.4121,-4.4216,-4.4293,-4.4314,-4.4333,-4.4398,-4.4421,-4.4135,-4.4136,-4.4136,0,-4.3291,-4.3412,-4.3407,-4.3499,-4.3543,-4.3506,-4.3609,-4.3648,-4.3726,-4.3757,-4.3716,-4.3879,-4.3915,-4.4058,-4.4103,-4.4136,-4.4164,-4.4112,-4.4312,-4.433,-4.4348,-4.4409,-4.4434,-4.4142,-4.4141,-4.414,-4.414,0,-4.3503,-4.3588,-4.3663,-4.3739,-4.3792,-4.3889,-4.39,-4.3954,-4.3944,-4.3959,-4.4078,-4.412,-4.4199,-4.4233,-4.4224,-4.4376,-4.4352,-4.4312,-4.4237,-4.4379,-4.4437,-4.446,-4.415,-4.4148,-4.4146,-4.4145,0,0,-4.3712,-4.3788,-4.3815,-4.385,-4.3913,-4.3978,-4.4075,-4.4153,-4.42,-4.4256,-4.4337,-4.445,-4.4414,-4.4457,-4.4453,-4.4521,-4.4664,-4.4473,-4.4474,-4.4505,-4.4834,-4.4862,-4.489,-4.4646,-4.4651,-4.4654,-4.4829,0,-4.3879,-4.4047,-4.4048,-4.4203,-4.4281,-4.425,-4.4334,-4.4383,-4.44,-4.447,-4.449,-4.457,-4.4517,-4.4543,-4.461,-4.4632,-4.473,-4.462,-4.472,-4.4724,-4.4704,-4.492,-4.4949,-4.5112,-4.4852,-4.4856,-4.4859,0,-4.4095,-4.4159,-4.4322,-4.4375,-4.4408,-4.4483,-4.4556,-4.4624,-4.4678,-4.4687,-4.4737,-4.4723,-4.4822,-4.4747,-4.4884,-4.481,-4.4852,-4.487,-4.4876,-4.4883,-4.4797,-4.493,-4.5164,-4.5187,-4.4894,-4.4891,-4.4889,0,-4.423,-4.4357,-4.4471,-4.4503,-4.4567,-4.4621,-4.4651,-4.4701,-4.4749,-4.4813,-4.4844,-4.4919,-4.496,-4.5019,-4.5026,-4.4971,-4.5164,-4.509,-4.5173,-4.5173,-4.5212,-4.5209,-4.5453,-4.5244,-4.5244,-4.5243,-4.5243,0,-4.4414,-4.4515,-4.4533,-4.4603,-4.4715,-4.4716,-4.4828,-4.4853,-4.4899,-4.4973,-4.4953,-4.5023,-4.5029,-4.5103,-4.511,-4.5222,-4.5241,-4.5251,-4.5251,-4.5251,-4.525,-4.5276,-4.5264,-4.525,-4.5248,-4.5247,-4.5246,0,-4.4582,-4.4598,-4.472,-4.4773,-4.4788,-4.4869,-4.4914,-4.4981,-4.4999,-4.5094,-4.5116,-4.5143,-4.5229,-4.5243,-4.5344,-4.5348,-4.5483,-4.5472,-4.5464,-4.5461,-4.5544,-4.5535,-4.5811,-4.5847,-4.5616,-4.5619,-4.5621,0,-4.4697,-4.4773,-4.4835,-4.4884,-4.4916,-4.4995,-4.5044,-4.5049,-4.5101,-4.5171,-4.5231,-4.5314,-4.5381,-4.552,-4.5549,-4.5626,-4.5616,-4.5708,-4.5627,-4.5626,-4.5615,-4.561,-4.5617,-4.5722,-4.5724,-4.5727,-4.5728,0,-4.4899,-4.4904,-4.4975,-4.505,-4.5109,-4.5169,-4.5225,-4.5266,-4.5279,-4.5339,-4.5427,-4.5479,-4.5583,-4.5666,-4.5744,-4.5775,-4.5754,-4.5754,-4.5777,-4.5777,-4.5768,-4.5772,-4.5503,-4.5747,-4.5745,-4.5743,-4.5742,-4.5742,-4.5042,-4.5109,-4.5163,-4.5244,-4.5287,-4.5341,-4.5407,-4.5433,-4.5506,-4.5591,-4.5591,-4.5687,-4.5742,-4.5844,-4.5881,-4.5957,-4.5927,-4.5961,-4.5969,-4.5977,-4.5984,-4.5759,-4.5972,-4.5971,-4.5971,-4.597,-4.597,0,-4.5241,-4.5275,-4.535,-4.5429,-4.5493,-4.547,-4.5532,-4.5587,-4.5672,-4.5725,-4.5792,-4.5894,-4.5976,-4.6013,-4.6094,-4.6147,-4.614,-4.6168,-4.6163,-4.617,-4.6007,-4.5978,-4.6173,-4.6173,-4.6173,-4.6173,-4.6173,-4.6172,-4.5352,-4.5464,-4.5476,-4.5611,-4.5644,-4.5738,-4.5775,-4.5825,-4.5868,-4.5982,-4.605,-4.6074,-4.6122,-4.6207,-4.6281,-4.629,-4.632,-4.6352,-4.6357,-4.6202,-4.6182,-4.6162,-4.6134,-4.6359,-4.6359,-4.6513,-4.6515,-4.6516]},{"header":{"parameterUnit":"m.s-1","parameterCategory":1,"la1":30.2991,"la2":30.254,"lo1":-89.0895,"lo2":-89.0444,"dy":0.0017,"dx":0.0017,"nx":28,"ny":28,"refTime":"2023-10-25T09:00:00:Z","depth":0,"parameterNumber":3,"parameterNumberName":"V-component_of_WINDS"},"data":[0,0,0,0,0,0,0,0,0,0,0,0,0,0,0,0,0,0,0,0,0,0,0,0,0,0,0,0,0,0,0,0,0,0,0,0,0,0,0,0,0,0,0,0,0,0,0,0,0,0,0,0,0,0,0,0,0,0,1.9638,1.9639,0,1.9727,1.9728,1.9729,1.9674,1.9672,1.9669,1.9667,1.9759,1.9764,1.9769,0,0,0,0,0,0,0,0,0,0,0,0,0,1.9426,1.943,1.9638,1.9639,1.9641,1.9727,1.9728,1.9729,1.9675,1.9671,1.9668,1.9665,1.9758,1.9763,1.9769,0,0,0,0,0,0,0,0,0,0,0,0,0,1.9517,1.9431,1.9638,1.9624,1.9623,1.9727,1.9728,1.973,1.9675,1.9671,1.9667,1.9664,1.9756,1.9763,1.977,1.9893,0,0,1.9792,1.9796,0,0,0,0,0,0,0,0,1.9512,1.9525,1.9625,1.9625,1.9625,1.9686,1.9687,1.9785,1.9676,1.9656,1.9666,1.9662,1.9738,1.9746,1.9772,1.9898,1.9902,1.9793,1.9797,1.9801,1.9803,0,0,0,0,0,0,0,1.9505,1.952,1.9673,1.9626,1.9626,1.9614,1.9623,1.9705,1.9718,1.9657,1.9653,1.9665,1.9737,1.9765,1.9773,1.9903,1.9793,1.9799,1.9804,1.9807,2.0138,2.0143,0,0,0,0,0,0,1.95,1.9515,1.9671,1.9676,1.9557,1.9621,1.9631,1.967,1.9717,1.972,1.9668,1.9662,1.9754,1.9765,1.9777,1.9926,1.9801,1.9807,1.9812,2.0134,2.0139,2.0144,0,0,0,0,0,0,1.9495,1.9514,1.9667,1.9595,1.9613,1.9629,1.9673,1.9674,1.9701,1.9725,1.9727,1.9693,1.9752,1.9766,1.9865,1.9928,1.9811,1.9817,2.0129,2.0136,2.0142,2.0224,0,0,0,0,0,0,1.9489,1.9513,1.9558,1.9596,1.9618,1.9753,1.9677,1.9678,1.9714,1.9707,1.9749,1.9753,1.975,1.9855,1.9873,1.9936,1.9823,2.0123,2.0132,2.014,2.0216,2.0233,2.0247,0,0,0,0,0,1.9482,1.9578,1.9561,1.958,1.9675,1.9757,1.9769,1.9763,1.9719,1.9766,1.9782,1.9751,1.9919,1.9865,1.9885,1.9952,2.0119,2.0129,2.0139,2.0209,2.023,2.0247,0,0,0,0,0,0,1.9546,1.9582,1.9564,1.9675,1.9713,1.9747,1.9806,1.9785,1.9837,1.9828,1.9819,1.983,1.9934,1.9953,1.9892,2.0076,2.0012,2.0027,2.0059,2.0079,2.0094,2.0087,1.9829,0,0,0,0,0,1.9573,1.9636,1.9665,1.976,1.978,1.979,1.9826,1.9818,1.9858,1.9874,1.9897,1.9937,1.9999,2.004,2.0098,2.0219,2.0229,2.0275,2.0291,2.0304,2.0316,2.0384,2.0406,2.0177,2.0177,2.0177,0,0,1.963,1.9657,1.9697,1.9773,1.9802,1.9869,1.9804,1.9876,1.9926,1.9885,1.998,1.9999,2.0044,2.0155,2.0206,2.0174,2.0382,2.0316,2.0326,2.0332,2.0397,2.0419,2.0438,2.0184,2.0182,2.0181,0,0,1.9766,1.9793,1.9876,1.9907,1.9953,1.9959,1.998,2.0018,2.0029,2.0125,2.0096,2.0156,2.0263,2.0297,2.0328,2.0483,2.0458,2.0502,2.0584,2.0651,2.0669,2.0685,2.0741,2.0762,2.0515,2.0515,2.0515,0,1.9831,1.9929,1.9922,1.9998,2.0033,2.0,2.0085,2.0116,2.0178,2.0204,2.0169,2.0304,2.0332,2.0452,2.049,2.0516,2.0541,2.0497,2.0667,2.0683,2.0697,2.0752,2.0773,2.052,2.052,2.0519,2.0519,0,2.0007,2.0076,2.0138,2.02,2.0242,2.0323,2.0329,2.0374,2.0364,2.0376,2.0475,2.0508,2.0574,2.0602,2.0592,2.0722,2.0702,2.0667,2.0603,2.0725,2.0775,2.0796,2.0528,2.0526,2.0524,2.0523,0,0,2.0183,2.0243,2.0266,2.0295,2.0344,2.0398,2.0479,2.0543,2.0582,2.0628,2.0696,2.0789,2.0758,2.0794,2.0788,2.0847,2.097,2.0805,2.0806,2.0836,2.1118,2.1144,2.1168,2.0955,2.0959,2.0962,2.1115,0,2.0324,2.0463,2.0461,2.0591,2.0656,2.0628,2.0698,2.0737,2.0752,2.081,2.0826,2.0892,2.0846,2.0868,2.0924,2.0943,2.1027,2.0932,2.102,2.1023,2.1009,2.1194,2.1221,2.1363,2.1134,2.1138,2.114,0,2.0505,2.0557,2.0694,2.0737,2.0764,2.0827,2.0888,2.0944,2.099,2.0996,2.1038,2.1025,2.1109,2.1044,2.1161,2.1097,2.1133,2.1149,2.1154,2.1162,2.1088,2.1207,2.1409,2.143,2.1171,2.1168,2.1166,0,2.0621,2.0726,2.0822,2.0848,2.09,2.0946,2.097,2.1011,2.1051,2.1105,2.1132,2.1195,2.123,2.128,2.1285,2.1237,2.1404,2.1339,2.1413,2.1413,2.1448,2.1446,2.1659,2.1472,2.1472,2.1471,2.1471,0,2.0778,2.0863,2.0875,2.0934,2.103,2.1028,2.1123,2.1144,2.1182,2.1246,2.1226,2.1287,2.129,2.1353,2.1358,2.1456,2.1471,2.148,2.148,2.1482,2.1481,2.1505,2.1495,2.1477,2.1476,2.1475,2.1474,0,2.0923,2.0934,2.1038,2.108,2.1093,2.1162,2.1199,2.1256,2.127,2.1351,2.1371,2.1392,2.1466,2.1477,2.1563,2.1566,2.1684,2.1674,2.1669,2.1667,2.1741,2.1734,2.1977,2.2009,2.1801,2.1803,2.1804,0,2.1022,2.1087,2.1137,2.1179,2.1206,2.1272,2.1314,2.1316,2.1361,2.142,2.1471,2.1543,2.16,2.172,2.1744,2.1811,2.1803,2.1883,2.1812,2.1813,2.1805,2.1801,2.1809,2.1896,2.1899,2.1901,2.1902,0,2.1197,2.12,2.126,2.1324,2.1375,2.1425,2.1472,2.1508,2.1517,2.1568,2.1644,2.1688,2.1778,2.185,2.1917,2.1944,2.1926,2.1925,2.1946,2.1947,2.1942,2.1947,2.1706,2.1919,2.1917,2.1916,2.1915,2.1914,2.1322,2.138,2.1425,2.1494,2.1531,2.1576,2.1633,2.1655,2.1718,2.179,2.1789,2.1873,2.192,2.2008,2.204,2.2107,2.2081,2.2111,2.2118,2.2126,2.2134,2.1932,2.2119,2.2119,2.2118,2.2118,2.2117,0,2.1497,2.1526,2.1589,2.1657,2.1712,2.1691,2.1743,2.1791,2.1865,2.1911,2.1968,2.2057,2.2128,2.216,2.223,2.2278,2.2272,2.2297,2.2293,2.23,2.2152,2.2127,2.2301,2.2301,2.2301,2.2301,2.2301,2.2301,2.1594,2.1691,2.1701,2.1818,2.1846,2.1927,2.196,2.2003,2.204,2.214,2.2199,2.2219,2.226,2.2334,2.24,2.2408,2.2435,2.2464,2.2468,2.2329,2.231,2.2292,2.2269,2.247,2.247,2.2611,2.2612,2.2613]}]]